Weather in Obozyorsky

Russia / Arkhangel'skaya Oblast'     63°27′16″N   40°17′58″E
temp.,
°C
wind,
m/s
gust,
m/s
humid.,
%
clouds,
%
prec.,
mm/h
press.,
hPa
HPBL,
m
21 june, mon
mon2100:00+20sw3126396 0.0 1013276
03:00+19wsw41364100 0.0 1013351
06:00+21wsw386685 0.0 1014267
09:00+26w355357 0.0 1015730
12:00+29w354298 0.0 10151543
15:00+30w353750 0.0 10152276
18:00+30w133621 0.0 10141835
21:00+24ne236469 0.0 101563
22 june, tue
tue2200:00+20ssw22740 0.0 101539
03:00+19sw38650 0.0 1016142
06:00+23sw310602 0.0 1016323
09:00+27wsw47495 0.0 1015878
12:00+31w463716 0.0 10152522
15:00+33w452976 0.0 10153037
18:00+31w244037 0.0 10151300
21:00+26ese11620 0.0 101516
23 june, wed
wed2300:00+21sse35746 0.3 101680
03:00+20sw277718 0.3 1016127
06:00+22ssw26855 1.4 1015150
09:00+30ssw354510 1.4 1015631
12:00+33sw47312 0.0 10142560
15:00+34wsw672757 0.0 10132893
18:00+32wsw58365 0.0 10122302
21:00+25sw25634 0.0 1013105
24 june, thu
thu2400:00+19wsw229477 3.2 101442
03:00+19sw269350 3.4 1013129
06:00+22wsw388444 0.0 1013328
09:00+27wsw465622 0.0 10131020
12:00+31w484184 0.0 10122485
15:00+30wnw574791 0.0 10111709
18:00+19n469195 1.9 1013588
21:00+16nnw3788100 2.3 1014468
25 june, fri
fri2500:00+13nw389463 1.6 1015313
03:00+12nnw4895100 1.6 1016542
06:00+11n3786100 0.0 1018482
09:00+15n45582 0.0 1019915
12:00+18n34485 0.0 10191339
15:00+20n33420 0.0 10191537
18:00+20n33410 0.0 10191537
21:00+14n37625 0.0 1019287